Wind_Speed
16 15 15 15 15 15 15 15 14 14 14 14 13 12 12 12 11 11 10 10 11 10 10 9 7 8 8 8 6 5 4 3 5 7 12 13 12 13 11 16 20 25 26 20 19 18 16 14 14 14 11 9 7 5 6 5 3 3 3 3 1 3 5 7 7 6 2 6 8 8 8 8 9 8 6 7 9 10 8 6 6 5 6 12 19 26 27 25
16 16 16 15 15 15 15 15 15 14 14 13 13 12 12 12 11 11 10 10 10 11 10 8 6 6 7 6 7 7 4 5 9 12 17 15 11 12 13 18 22 28 27 21 22 20 17 14 15 15 10 7 5 5 5 5 5 4 3 2 2 5 5 6 7 7 5 4 8 8 8 8 9 9 7 8 11 10 9 8 8 9 12 16 23 27 26 25
17 17 16 16 16 15 14 14 15 15 13 13 13 13 13 12 12 11 11 10 10 11 10 9 5 5 6 5 7 8 5 7 10 10 9 8 12 14 16 22 25 30 27 21 22 20 16 15 17 15 9 7 6 6 6 4 5 4 4 1 4 5 5 6 8 7 6 3 7 8 6 7 8 8 7 8 11 11 10 9 10 13 15 18 23 25 26 24
17 17 17 16 16 16 14 14 15 15 14 14 14 14 14 13 12 12 11 10 10 10 10 9 6 4 5 6 7 6 6 9 4 2 2 2 6 15 20 25 27 30 26 19 20 17 14 15 16 14 9 7 7 7 6 6 4 2 4 1 5 3 4 7 8 8 6 3 5 8 7 7 8 6 6 8 10 8 9 10 11 15 18 20 22 24 25 24
17 17 17 17 17 17 16 16 15 15 15 15 15 15 15 14 13 12 11 11 10 10 9 9 7 4 3 6 6 4 5 6 4 6 1 4 3 16 24 27 29 28 23 18 18 16 14 15 14 12 8 7 8 8 7 8 5 3 5 3 2 1 4 6 6 6 6 3 4 7 7 6 7 6 6 9 7 3 6 8 12 17 19 21 22 23 24 23
17 17 18 18 18 17 17 17 16 15 15 16 16 16 16 15 14 12 11 10 10 9 8 8 8 5 3 5 5 3 6 2 4 4 4 4 6 20 26 28 29 24 20 19 19 16 15 15 13 11 8 7 9 9 7 10 8 5 5 3 2 2 4 5 4 4 3 2 4 5 6 7 7 6 6 8 3 2 6 9 12 17 20 23 24 22 22 21
17 17 17 18 18 18 18 18 18 17 16 17 17 17 17 16 14 12 10 9 9 9 8 7 7 5 2 3 3 5 9 4 4 5 6 1 13 25 27 28 27 21 21 22 20 16 14 14 13 10 9 8 9 10 7 9 9 6 4 2 2 2 3 5 3 2 1 1 3 4 6 8 8 6 7 7 4 5 7 10 13 17 22 23 22 21 20 20
17 17 18 18 19 19 19 19 18 18 17 18 18 18 18 16 14 12 10 9 9 9 8 6 7 4 1 3 5 6 7 3 5 5 3 8 20 26 27 26 23 21 22 23 20 17 14 15 14 9 9 7 7 9 7 7 9 9 7 3 3 3 4 5 4 2 2 1 4 5 6 9 8 4 7 7 5 7 8 11 14 17 20 20 19 20 19 19
18 17 17 18 19 19 19 19 19 19 18 19 20 20 19 16 14 12 10 9 9 10 8 6 6 3 1 5 7 5 2 4 4 0 6 16 21 24 26 23 21 21 22 22 20 18 14 13 14 9 7 5 5 9 8 7 7 7 7 5 5 6 5 5 5 3 3 3 5 7 5 8 7 3 6 8 6 8 10 12 14 16 18 18 17 18 18 18
18 17 18 18 19 19 20 20 19 19 19 20 21 21 20 18 15 13 11 10 10 11 8 6 6 3 3 6 8 4 4 5 2 8 13 18 20 23 23 20 22 20 20 20 19 18 13 11 13 6 5 4 6 8 9 7 2 2 5 6 7 8 5 5 5 2 4 5 7 7 5 6 6 6 5 8 8 9 12 13 14 15 17 17 16 16 17 18
18 18 18 18 19 20 19 20 19 19 20 21 21 21 20 17 14 12 10 10 11 11 8 6 5 5 5 7 8 2 7 3 6 11 14 17 21 22 19 19 21 19 18 18 18 18 13 10 10 6 3 3 6 7 8 7 2 2 5 6 8 7 2 2 2 2 4 6 7 7 9 6 6 7 6 9 11 11 13 14 15 15 14 15 16 16 15 16
19 18 18 18 19 19 19 20 19 19 20 21 21 21 18 15 13 11 8 10 11 10 8 6 6 5 5 7 7 1 7 3 8 11 14 16 17 16 15 18 18 16 17 16 16 16 11 8 10 9 2 1 6 5 5 6 4 4 7 7 7 6 3 2 3 4 4 5 7 8 8 8 9 8 7 12 12 12 14 14 15 14 14 14 15 14 13 15
19 19 18 18 19 19 19 19 19 19 20 20 20 18 15 13 11 8 6 9 10 9 8 7 7 5 6 5 1 0 3 4 9 13 13 13 13 13 13 15 13 12 14 14 14 12 9 8 11 10 2 3 6 2 0 5 5 6 7 7 6 6 5 5 4 5 4 5 7 7 3 5 9 9 9 13 12 14 14 14 14 12 12 13 14 13 13 15
18 18 18 19 19 19 18 18 18 18 18 19 18 14 13 11 8 4 5 9 9 9 9 8 7 5 7 2 4 1 1 5 10 14 13 13 13 13 13 12 10 9 10 11 11 9 7 8 10 8 4 6 3 1 4 6 6 6 6 6 6 6 5 6 4 6 5 5 7 6 1 2 8 10 11 12 12 14 13 13 14 12 12 12 13 13 13 14
19 19 19 20 20 19 18 18 17 17 17 18 14 10 11 9 4 3 7 9 9 9 9 8 6 5 6 3 3 1 4 7 11 14 13 14 14 13 14 12 10 9 7 8 9 7 6 7 9 8 5 5 3 5 8 6 6 7 6 7 7 4 4 6 5 5 3 4 7 6 1 2 8 10 10 11 12 13 12 13 13 12 12 12 12 13 12 13
21 21 21 21 20 19 18 17 16 16 16 14 9 8 12 9 7 8 9 9 10 10 9 6 6 6 6 1 5 4 6 7 10 13 12 12 12 12 14 12 10 10 8 6 7 7 6 7 7 6 6 5 6 8 7 6 7 8 7 8 8 6 6 6 7 4 2 3 7 6 2 2 7 10 10 10 13 13 12 12 13 12 11 11 11 12 12 12
22 22 23 22 19 18 17 16 15 15 15 10 3 8 12 11 12 12 11 11 10 9 5 2 3 6 4 2 5 6 8 6 9 14 13 9 9 14 16 11 10 11 9 7 7 8 7 7 5 5 6 6 8 8 7 8 8 7 8 8 7 6 5 5 6 6 4 4 7 8 5 3 6 9 10 11 12 13 11 12 13 12 11 11 11 11 12 12
23 23 23 21 18 17 15 15 14 14 13 5 3 8 11 12 13 10 9 9 7 5 5 3 3 5 3 6 5 6 8 8 9 13 13 9 9 15 14 10 11 12 10 8 8 9 8 7 6 6 7 7 8 8 8 9 9 10 10 9 7 5 4 4 5 7 7 7 6 7 6 5 7 8 10 11 11 12 11 11 12 12 12 12 11 12 12 13
23 24 23 21 18 16 14 14 14 14 10 1 6 7 8 8 7 4 5 6 5 4 2 3 6 3 1 7 5 6 8 8 9 12 14 12 12 13 11 11 12 12 10 8 9 10 8 6 7 8 9 10 10 11 9 4 5 8 9 10 9 7 4 4 6 7 9 7 6 7 6 5 9 9 10 12 11 11 11 11 11 12 12 11 11 11 12 13
26 24 23 20 18 16 14 13 13 12 6 5 7 2 3 2 2 4 6 7 8 8 7 3 6 6 2 4 4 5 7 8 8 11 15 15 14 13 10 11 11 10 9 8 10 10 8 8 9 9 10 12 13 13 8 1 1 3 6 8 8 6 5 7 7 7 8 6 5 7 5 3 6 9 11 12 13 12 12 12 11 12 12 11 12 12 13 13
27 24 22 19 17 16 13 13 12 8 3 6 7 5 2 3 3 1 1 6 8 8 10 7 7 9 6 2 1 0 4 8 9 11 16 16 16 13 9 11 11 9 9 10 9 9 9 9 10 11 11 12 14 12 6 2 3 3 5 7 7 6 5 7 6 6 6 6 5 5 5 4 4 7 10 12 14 14 14 14 13 14 13 11 12 13 13 12
25 23 21 18 17 15 12 11 9 3 2 6 8 6 3 5 5 4 4 5 4 5 8 7 7 8 7 7 5 4 4 8 11 12 15 16 15 11 9 10 10 8 10 10 8 8 9 10 11 12 10 10 12 11 9 6 5 5 5 6 6 7 6 6 6 6 5 5 3 3 4 4 5 6 10 13 13 12 14 15 14 14 14 12 13 13 13 13
24 22 20 18 16 13 11 8 3 2 4 4 7 3 2 4 4 3 5 6 2 4 6 7 7 7 7 7 5 6 8 9 12 12 14 16 13 9 9 11 10 9 11 11 9 8 8 10 11 10 8 10 12 11 11 7 6 7 6 6 6 7 6 4 7 7 4 4 1 0 4 4 5 6 9 12 12 11 13 15 14 14 14 13 14 13 13 14
24 21 19 17 15 12 8 1 3 3 2 4 3 2 3 3 4 4 5 6 2 3 3 3 5 6 4 2 5 9 8 6 9 13 16 15 11 7 9 11 10 9 10 13 13 10 7 6 8 10 11 13 13 11 11 8 7 8 7 8 5 7 6 2 5 5 5 5 4 3 6 5 5 6 8 10 11 11 12 14 14 14 14 14 14 14 15 14
23 20 16 14 13 10 3 5 4 2 3 5 3 2 3 5 4 5 6 5 3 4 4 3 3 3 1 2 5 6 6 5 3 11 17 14 11 9 7 8 8 8 11 14 13 10 7 5 8 11 12 14 13 11 12 10 8 8 10 9 3 3 5 2 2 4 5 7 6 4 7 5 5 5 6 8 10 10 10 12 13 13 13 13 13 14 15 14
23 20 15 12 11 6 3 4 3 1 5 6 3 2 4 7 4 5 5 5 4 3 4 5 3 3 3 5 6 4 7 5 4 8 14 9 7 8 6 6 6 6 10 12 8 6 5 8 10 12 12 14 13 11 12 11 8 6 8 10 6 3 5 5 4 5 5 3 4 3 7 4 7 6 5 8 9 9 9 9 11 11 11 12 12 13 13 14
22 19 15 10 9 6 1 1 2 2 4 3 2 3 6 6 3 5 5 5 4 2 2 3 1 3 2 3 6 4 6 9 7 6 7 4 5 6 6 8 6 4 7 8 6 5 6 9 11 12 12 13 11 10 12 12 10 4 6 7 9 6 7 7 6 6 5 2 2 5 5 4 5 5 5 5 6 7 7 7 9 10 11 12 12 12 13 15
20 17 13 8 7 6 3 2 1 3 2 3 1 5 7 4 5 5 6 2 4 2 1 4 2 1 1 3 5 3 5 10 8 5 4 4 6 6 8 9 9 8 9 8 6 7 9 11 11 12 11 10 9 10 11 12 11 4 6 4 7 6 7 7 7 7 3 2 5 7 5 5 5 6 5 4 6 5 6 6 7 10 11 12 13 14 14 15
17 14 11 8 6 5 4 1 3 1 2 2 4 5 6 4 5 5 6 1 3 1 1 3 2 3 5 6 4 4 5 3 2 5 6 7 4 5 6 5 8 10 11 11 7 7 9 10 9 11 10 8 11 12 10 12 11 4 4 5 5 5 6 6 7 7 4 4 8 7 7 7 5 6 4 4 6 4 3 2 3 7 11 12 13 14 15 14
13 11 11 10 6 4 3 2 3 2 3 5 6 6 5 5 5 6 4 2 2 2 2 0 2 4 8 9 5 5 5 5 5 7 7 6 5 5 2 1 5 6 9 12 10 4 6 5 6 7 4 3 8 10 9 11 11 4 4 6 6 6 5 5 6 5 5 6 9 9 9 9 5 4 3 4 5 5 4 3 3 1 6 10 12 13 14 14
10 11 11 10 6 4 5 1 2 4 7 7 6 5 5 5 5 4 3 2 1 3 2 1 2 5 9 8 6 6 6 7 5 6 7 7 7 6 3 4 6 6 7 9 7 6 8 8 7 3 2 2 5 7 6 10 11 7 6 7 7 6 5 5 5 5 6 7 10 10 8 10 8 3 5 5 6 7 6 5 6 6 3 4 9 11 12 13
7 10 12 11 9 6 6 5 5 8 8 6 5 5 5 4 3 1 4 1 1 3 2 1 3 6 8 7 7 6 6 6 4 4 6 6 5 4 1 1 3 5 7 8 8 8 8 7 7 5 2 3 7 7 6 8 10 9 8 8 8 7 6 7 8 7 8 6 7 10 9 7 3 5 6 7 8 8 7 7 7 7 7 5 6 9 11 12
3 9 12 12 12 9 7 8 8 6 4 4 5 5 5 3 2 3 3 1 1 4 2 1 3 7 9 9 8 7 7 6 4 4 5 5 6 5 5 6 4 4 5 8 10 9 6 6 8 8 6 3 8 9 6 7 10 10 9 9 8 7 8 9 9 8 9 7 5 7 9 7 5 6 6 8 9 9 8 8 8 8 7 6 6 7 10 12
1 5 12 14 13 12 10 6 4 3 3 5 6 6 4 2 4 1 3 6 5 3 2 2 4 8 8 7 5 4 5 6 4 3 5 4 4 5 5 7 7 6 4 6 8 8 7 7 6 6 4 2 6 5 3 4 10 11 9 9 8 7 7 8 9 9 9 9 8 8 7 6 6 6 6 8 9 9 9 9 9 9 8 6 5 4 7 11
3 3 10 12 11 13 12 5 2 1 3 6 6 3 1 3 4 2 4 5 3 2 3 3 5 9 9 7 6 2 2 3 4 5 6 5 5 5 3 5 9 7 5 4 6 6 5 5 5 4 3 1 2 2 5 5 8 10 9 9 8 6 5 5 5 8 10 9 8 8 4 2 6 9 8 7 8 10 10 11 11 11 11 9 7 7 3 5
3 3 7 9 9 12 11 4 1 2 4 7 4 2 3 4 4 5 5 5 5 3 1 4 3 6 8 5 6 4 3 3 4 4 7 7 7 8 5 5 7 8 6 3 3 3 3 6 7 5 3 1 2 1 3 5 4 6 8 9 4 1 4 3 2 6 9 8 8 8 6 7 8 8 7 6 8 11 12 12 12 13 13 11 10 9 9 7
2 2 4 9 11 12 10 5 2 4 6 5 1 4 3 4 5 6 5 6 5 4 4 4 1 1 6 6 5 6 5 4 2 2 3 3 4 7 7 4 5 7 7 5 2 1 1 5 7 4 5 5 2 1 2 2 4 3 7 7 4 1 4 4 3 6 9 7 7 11 11 9 7 5 5 8 10 13 13 13 13 14 14 13 12 11 11 11
3 3 1 9 14 12 8 6 4 7 4 1 6 5 3 5 6 6 5 6 4 5 5 1 2 3 3 6 5 4 2 3 2 3 3 2 2 6 7 4 4 7 7 6 3 1 2 3 7 4 4 6 3 3 5 4 2 3 1 4 4 4 7 6 5 6 9 9 7 12 12 6 2 1 6 9 11 13 12 13 13 15 15 13 13 13 12 12
4 5 1 9 13 10 8 6 7 6 1 3 5 4 4 6 7 7 5 4 3 4 3 3 2 2 3 3 5 4 2 2 4 3 2 2 2 5 7 4 4 7 8 7 4 1 3 2 5 5 5 6 3 2 3 5 4 3 3 4 4 4 5 6 7 6 7 9 8 9 10 5 4 3 6 8 10 11 11 12 12 14 14 13 13 13 12 11
4 4 2 11 14 8 7 7 4 0 3 4 4 4 4 5 7 8 8 5 3 3 2 4 2 3 5 4 4 4 5 5 5 3 3 3 2 4 7 7 6 9 8 6 3 2 3 4 3 7 7 7 3 3 4 3 1 4 6 6 5 4 3 3 7 5 5 7 8 9 9 5 5 3 5 7 8 8 9 10 10 11 12 12 13 13 12 11
4 2 3 12 14 8 7 4 3 4 4 5 5 5 4 4 5 7 8 7 5 5 5 6 5 5 5 4 4 4 4 5 5 4 4 3 2 4 7 9 8 9 8 4 1 4 2 4 3 6 6 4 5 6 5 6 6 3 1 1 2 4 4 5 8 7 5 5 4 7 7 6 5 2 4 6 7 7 9 9 9 10 12 12 13 13 13 13
3 1 5 13 13 9 6 2 5 4 4 5 5 6 4 4 5 6 6 6 6 6 6 7 7 6 5 5 4 4 5 5 4 4 5 5 6 5 7 9 8 7 6 2 2 4 3 3 2 5 5 6 8 4 3 3 4 4 4 3 2 2 3 6 6 6 7 5 4 5 5 7 4 1 4 6 7 7 8 9 9 10 11 12 13 14 14 14
3 4 6 10 10 9 4 5 5 4 6 5 5 7 6 5 6 7 5 6 5 5 5 6 6 6 5 5 4 5 5 4 4 4 5 6 7 6 7 10 8 6 5 2 1 3 3 2 2 6 6 6 6 3 1 1 2 1 4 5 3 2 2 4 4 3 6 6 3 7 5 6 3 1 3 6 8 8 8 9 10 10 10 12 13 14 14 15
4 3 5 9 8 7 3 4 4 5 6 5 6 8 7 7 9 9 8 8 6 4 6 7 6 5 5 4 4 4 2 1 4 4 3 4 4 5 7 9 9 6 5 4 3 4 3 1 1 4 6 6 6 5 4 2 1 2 4 5 5 5 3 4 3 3 5 1 2 7 4 6 4 4 5 7 9 9 9 10 10 10 10 11 12 13 13 14
1 1 4 9 9 4 3 4 3 5 6 7 7 7 6 7 8 8 10 10 8 6 5 6 6 5 5 4 5 5 3 2 3 4 3 4 4 4 7 9 8 7 7 6 6 5 2 2 2 3 6 6 5 4 2 3 4 3 4 5 6 7 5 3 2 5 5 1 2 3 4 8 7 7 7 7 8 9 10 10 10 10 10 11 11 12 12 13
1 1 2 4 6 6 5 4 3 4 4 4 5 6 6 6 6 7 7 8 8 8 6 5 4 3 5 5 6 7 6 6 5 5 5 4 4 4 6 6 7 8 7 6 6 4 1 2 4 4 2 2 3 4 4 2 3 4 4 5 5 7 7 4 3 4 2 3 3 4 7 13 11 9 8 7 7 8 9 9 9 10 10 11 10 10 12 12
1 2 3 2 3 4 4 4 4 3 2 1 2 3 5 6 6 6 6 6 6 5 5 6 4 3 4 5 6 8 8 8 8 6 6 4 4 4 3 5 7 8 6 4 4 3 1 2 3 5 6 6 7 7 5 3 3 4 3 3 4 6 6 5 1 2 3 2 4 5 6 12 12 9 8 7 7 8 8 9 9 9 9 10 10 11 13 14
2 2 2 2 2 2 4 4 4 4 5 4 2 1 4 6 5 6 6 6 5 3 3 5 7 6 5 3 4 6 7 7 7 6 5 4 2 2 1 3 6 6 4 3 4 3 1 2 2 2 5 6 6 6 4 3 3 2 2 2 3 3 3 4 4 4 5 2 5 7 5 7 10 9 8 7 6 7 8 8 8 8 9 10 11 12 14 15
2 3 2 1 1 4 5 3 3 5 6 4 3 3 5 6 7 6 5 5 7 6 5 7 8 7 6 5 4 5 5 4 5 5 3 3 1 0 1 2 3 4 3 3 4 2 2 2 2 2 4 5 4 4 3 3 1 0 1 2 1 2 1 2 2 2 3 3 6 8 6 7 8 7 8 7 5 6 7 7 8 9 10 10 11 12 13 14
2 3 2 2 3 4 3 2 2 4 5 2 2 4 4 5 7 7 5 5 6 7 7 9 10 9 9 9 7 8 7 6 6 6 2 1 1 1 1 1 2 3 2 2 3 2 2 1 1 2 3 4 2 2 1 2 2 1 0 1 1 1 2 2 1 1 1 2 4 5 5 5 5 6 7 5 3 4 6 7 8 9 10 11 11 12 13 13
3 3 2 0 3 2 1 2 1 2 4 2 2 3 3 5 7 7 7 7 7 7 8 9 10 9 9 10 10 9 8 7 6 6 2 2 3 2 2 2 2 2 2 2 1 2 1 2 3 3 3 4 3 1 0 1 3 4 4 3 3 3 2 2 2 1 1 2 5 5 4 4 6 5 6 4 2 3 5 7 8 8 10 11 11 12 12 12
2 2 2 2 1 0 1 2 1 1 3 4 3 2 3 5 5 4 5 5 6 7 7 6 6 6 7 9 9 7 6 5 5 4 2 2 3 2 2 3 3 3 2 1 0 1 0 2 3 3 3 4 4 1 2 3 5 5 3 3 2 2 2 2 3 2 0 1 3 3 2 6 6 4 4 4 2 2 4 6 6 7 9 10 11 11 11 12
Wind_Direction
345 343 342 341 340 338 337 336 336 337 335 332 333 332 330 329 329 329 325 319 313 309 315 326 331 340 343 343 335 328 350 297 266 232 232 255 235 225 222 190 178 168 163 162 163 160 164 171 165 170 175 176 202 194 180 204 224 237 240 246 17 46 34 27 22 22 63 129 138 159 150 141 148 136 130 149 140 127 130 123 107 122 128 125 131 139 146 149
344 342 342 341 338 337 337 336 335 336 334 334 333 332 331 326 327 325 321 319 311 306 308 315 322 335 344 345 336 338 341 267 255 251 249 261 246 224 204 186 180 172 168 169 171 169 169 169 166 173 181 178 181 179 178 185 203 232 263 264 66 57 51 34 24 24 22 94 133 154 153 150 147 142 161 160 139 138 137 127 126 126 121 125 135 142 147 152
344 342 342 341 337 336 337 338 335 334 335 336 333 332 330 325 325 320 317 315 308 304 298 304 310 317 335 335 331 336 323 274 258 252 254 262 238 220 189 182 182 175 173 177 178 177 176 169 169 176 191 193 175 183 190 184 201 218 245 251 80 64 57 47 25 26 21 47 137 147 156 161 143 145 178 163 147 153 148 144 143 137 138 140 143 147 151 155
344 342 342 339 336 335 337 338 333 332 336 337 334 332 329 326 323 317 313 309 304 299 292 297 295 293 323 321 327 338 301 272 246 149 115 354 227 203 185 181 182 177 178 183 182 184 183 170 174 185 199 200 178 189 195 189 199 201 236 288 77 68 27 41 23 27 34 44 142 145 157 167 146 152 184 158 153 163 156 156 148 144 149 149 149 152 156 157
343 342 341 338 335 333 332 333 332 334 337 336 334 331 328 324 321 315 308 305 299 292 288 290 287 288 309 316 331 335 277 255 112 80 7 320 217 181 180 181 179 177 179 184 182 183 180 172 181 191 204 202 178 192 198 191 210 233 236 279 45 325 355 21 21 29 35 66 135 160 166 155 145 160 187 165 159 166 150 151 146 148 153 153 153 154 158 160
343 342 339 337 334 332 331 330 331 334 336 335 334 331 327 323 318 311 303 300 291 284 281 282 285 282 288 319 326 271 259 267 74 16 323 310 195 171 177 179 174 175 178 180 176 178 178 176 185 192 206 205 188 197 195 187 203 233 220 218 270 308 336 340 4 26 21 92 147 174 153 143 158 166 193 182 145 68 126 141 146 150 153 154 155 157 161 163
341 340 337 336 333 331 331 329 330 332 334 333 333 331 327 322 315 307 301 293 282 278 271 277 280 267 300 314 281 239 249 286 24 332 330 269 171 165 174 175 170 176 180 180 177 180 180 182 191 195 203 203 197 199 187 186 203 241 249 210 258 317 306 302 334 355 320 141 150 161 145 160 180 165 186 188 104 88 125 138 146 147 153 155 158 161 162 164
339 338 336 334 332 331 330 329 330 330 332 332 332 330 325 320 314 306 297 285 272 268 260 267 272 257 305 254 253 241 236 304 19 334 344 148 157 161 168 168 172 180 183 184 181 182 182 188 196 196 206 202 195 194 178 192 210 233 250 264 271 281 282 284 303 282 243 187 146 170 172 169 179 160 172 169 110 123 136 140 145 147 155 158 161 163 163 166
338 337 335 333 332 330 328 329 330 330 332 332 331 329 325 321 312 300 287 273 256 257 252 248 254 241 194 243 263 252 212 21 18 148 132 144 150 157 162 166 177 181 182 185 184 186 185 193 197 197 224 207 182 195 187 201 210 216 241 273 281 283 291 295 304 268 214 178 157 182 181 148 160 180 165 149 122 137 143 144 147 153 160 161 163 165 165 167
336 336 335 334 332 329 328 329 331 332 333 333 333 330 327 321 311 298 277 256 242 244 239 233 235 201 207 247 257 237 68 35 105 140 141 144 146 155 163 168 176 180 183 183 186 191 190 198 195 198 260 221 188 204 197 207 209 188 252 275 274 282 296 308 317 257 189 165 172 182 163 139 163 201 181 144 143 148 147 148 151 159 164 164 166 166 168 170
335 334 335 334 332 329 329 330 332 333 334 335 334 331 328 323 313 301 270 239 233 234 224 220 207 187 224 257 255 243 56 65 147 142 151 148 148 158 165 169 174 183 182 181 188 192 196 199 187 191 246 198 187 208 208 217 252 265 271 277 260 261 265 325 5 164 176 161 179 171 147 154 179 210 196 148 156 159 152 153 157 164 166 167 168 166 170 173
334 334 333 333 331 330 330 331 332 333 333 335 335 332 328 323 313 303 266 229 225 221 208 199 179 178 234 256 254 317 49 101 150 147 156 150 152 158 161 167 175 187 181 180 187 187 198 195 191 203 205 148 187 200 210 210 240 259 263 269 249 230 189 90 92 154 180 155 174 170 151 170 186 205 183 151 160 165 159 158 162 167 165 168 170 166 172 174
334 333 331 329 329 328 329 331 332 332 333 337 337 332 329 324 312 298 250 214 209 201 190 179 164 180 244 257 237 318 46 115 148 149 154 152 147 147 154 164 174 189 186 187 182 182 202 199 207 214 210 240 203 136 195 195 222 244 241 253 248 218 174 109 112 170 180 145 171 184 176 180 180 189 164 152 166 168 165 165 166 169 165 169 171 168 174 175
333 331 329 327 325 325 328 330 333 334 335 341 340 334 337 335 321 292 206 189 185 182 172 159 160 192 247 266 69 247 192 129 152 154 155 155 143 141 149 155 166 178 187 193 179 175 201 203 218 225 227 254 245 91 233 201 207 226 222 226 238 222 147 112 142 185 168 136 176 191 157 140 166 172 155 152 172 172 169 169 169 170 168 171 172 172 174 176
334 332 329 326 326 327 330 333 337 337 339 345 341 349 3 1 9 123 160 167 166 161 152 151 175 215 254 219 97 127 159 150 170 165 160 157 146 147 153 152 156 158 167 182 172 169 188 195 213 221 206 232 257 223 220 205 195 212 218 210 221 217 134 131 158 187 171 135 186 203 143 136 154 156 154 159 177 177 174 172 172 172 171 174 175 178 177 176
334 332 330 329 327 330 333 336 339 337 341 346 342 27 42 43 75 114 132 140 142 137 142 160 190 234 277 150 116 145 166 167 176 169 167 165 154 149 151 149 148 152 154 158 170 174 185 196 208 226 208 198 219 214 209 209 197 202 220 215 210 201 176 160 143 160 188 150 188 202 188 125 135 144 156 170 178 180 179 173 175 174 173 177 178 183 181 176
333 330 330 330 329 333 334 336 338 335 341 345 358 73 74 82 96 106 110 119 125 131 168 225 198 233 272 102 138 174 172 157 161 169 173 176 161 147 147 151 150 154 149 144 170 178 185 201 198 218 223 211 209 207 208 208 197 192 207 214 209 208 197 160 138 152 179 205 202 198 199 126 118 144 159 176 181 181 183 177 176 177 176 181 182 186 184 180
333 329 331 332 334 336 334 335 335 332 339 344 138 101 96 101 100 100 108 120 130 157 211 250 215 234 210 167 172 154 147 141 153 169 170 167 159 152 152 154 149 154 153 149 170 181 186 194 197 200 205 210 204 202 208 206 203 196 196 205 199 208 221 156 140 153 174 214 218 210 217 155 140 153 157 174 184 181 184 182 179 178 180 184 185 189 187 182
332 330 334 335 337 336 332 334 330 329 340 119 141 105 107 111 107 128 154 156 182 214 240 175 199 273 98 161 144 104 123 134 146 164 168 164 159 158 158 152 153 161 168 166 173 185 187 187 204 206 198 200 199 204 210 222 228 203 192 208 203 196 195 124 117 148 175 206 219 220 234 171 156 159 160 170 179 184 185 185 185 179 182 187 189 192 189 185
336 335 336 336 337 334 331 331 327 329 339 151 153 157 174 179 183 173 182 207 231 261 294 259 227 272 283 148 116 107 137 150 163 166 166 166 160 158 156 155 162 173 181 176 169 180 191 197 203 206 202 195 197 208 210 20 321 206 185 196 201 192 150 113 120 149 175 205 218 217 238 216 161 158 164 167 173 184 185 185 190 184 184 188 192 195 190 187
341 340 337 337 336 331 330 329 326 327 322 162 181 238 290 341 318 22 222 235 228 247 270 267 257 268 272 287 338 140 170 177 179 164 163 168 165 161 157 164 171 180 192 178 157 166 194 213 208 205 209 195 195 206 205 198 203 212 204 186 197 205 144 110 130 151 183 215 200 198 233 227 184 167 166 170 179 184 185 186 189 189 188 188 194 197 191 187
345 344 342 340 333 329 330 326 317 315 115 159 202 241 9 28 352 343 313 275 226 224 253 249 254 268 265 266 263 269 247 182 159 155 164 174 181 178 166 180 187 176 180 175 161 171 195 220 213 200 206 194 188 196 205 218 212 210 215 202 205 198 149 118 135 151 188 229 170 154 244 214 175 178 173 180 190 187 186 186 185 190 190 189 196 197 193 189
348 348 345 342 336 333 328 317 302 143 129 176 217 240 36 23 342 292 260 281 261 189 225 229 238 244 233 233 208 210 222 177 155 159 169 182 193 190 174 186 198 175 171 182 186 185 195 217 208 185 189 191 183 188 203 214 218 215 210 212 202 179 182 161 138 148 172 252 262 185 265 225 164 178 180 188 195 190 190 186 183 190 190 192 196 193 195 193
351 350 347 344 342 338 331 329 140 147 168 219 228 58 28 336 321 267 251 280 267 169 199 221 239 241 228 189 173 204 211 167 158 162 171 189 186 175 185 190 197 184 179 194 200 202 205 201 184 175 185 194 186 185 199 206 209 212 213 224 201 169 207 203 116 159 192 214 236 263 251 218 165 182 183 186 193 192 191 188 187 191 191 195 197 191 192 194
353 350 348 347 347 349 15 127 132 160 186 196 178 67 342 327 304 253 265 268 200 143 165 175 213 228 186 148 182 217 199 140 129 156 171 195 183 172 193 191 201 199 183 192 202 211 209 159 161 182 190 197 195 190 199 208 210 207 211 226 231 165 201 189 137 214 222 193 187 252 248 194 161 194 181 171 186 191 188 191 193 193 191 195 200 195 190 190
352 350 350 349 359 20 121 129 91 178 200 183 139 25 322 323 283 223 268 258 164 116 161 171 189 172 159 178 168 202 197 147 66 148 172 199 194 192 201 176 208 222 179 182 206 220 192 159 176 193 192 196 202 200 199 207 222 210 192 203 221 233 219 219 216 226 240 191 142 244 262 197 169 180 158 154 173 181 181 193 197 195 196 198 201 199 194 193
352 350 352 353 10 28 76 67 60 207 205 152 101 328 319 312 234 195 255 235 136 63 161 146 164 158 132 162 165 205 187 137 112 144 172 211 202 214 219 180 193 216 166 173 207 207 171 165 184 193 193 197 203 203 191 199 228 197 131 179 209 224 230 226 229 232 252 318 156 209 251 253 185 133 101 139 153 159 171 191 201 200 204 205 206 203 200 200
351 350 355 5 23 27 42 52 267 223 110 69 344 311 319 281 199 214 258 209 95 354 176 109 76 174 144 158 181 200 116 131 153 131 129 198 195 217 223 197 194 184 168 192 193 157 170 181 181 185 195 200 202 203 182 190 226 201 110 186 214 217 237 232 229 232 239 281 232 195 192 246 206 121 99 125 126 128 151 182 202 204 206 208 209 207 205 205
352 354 3 13 33 46 59 91 265 275 70 352 307 321 312 232 201 243 250 149 74 275 120 99 140 167 167 162 161 149 116 117 152 110 137 184 194 243 240 212 213 184 169 210 216 143 172 196 185 185 199 203 200 203 184 188 220 215 134 211 218 207 232 233 230 227 206 232 237 195 183 230 205 133 128 105 93 80 89 144 201 205 207 208 209 207 204 204
356 8 17 14 28 27 347 236 209 251 282 291 314 318 275 209 220 245 207 96 36 120 107 190 179 161 171 164 127 117 117 75 88 126 145 155 169 217 262 323 238 200 168 211 233 142 140 189 198 199 220 230 197 193 189 199 216 217 185 204 201 192 206 216 223 224 211 223 231 209 196 222 216 118 98 83 65 30 24 28 14 315 216 210 211 209 206 203
8 23 22 18 25 349 306 247 162 282 282 288 305 285 237 210 242 245 134 85 1 96 123 152 124 165 181 167 131 117 109 82 101 157 151 147 164 179 195 197 209 202 174 199 216 156 152 184 186 177 334 297 203 186 191 208 213 211 205 200 188 178 184 201 200 207 220 222 221 208 195 220 223 112 80 81 59 31 20 15 9 358 323 246 223 215 209 207
28 29 20 17 16 352 310 304 304 288 281 283 278 250 224 218 225 73 73 174 236 46 56 69 107 154 155 120 107 112 109 88 83 127 133 144 147 113 62 214 193 202 188 185 185 169 167 169 149 134 140 217 216 202 184 199 208 207 204 197 190 177 178 199 193 195 218 222 208 197 195 216 194 90 75 68 52 34 27 17 11 0 345 324 272 231 212 209
35 27 13 6 3 350 310 294 293 284 274 259 241 234 238 223 109 46 27 52 44 30 33 105 120 148 142 118 102 89 88 82 72 106 110 115 127 105 60 36 359 276 215 184 179 172 156 144 157 168 156 183 225 215 186 186 197 201 202 195 193 187 183 196 195 192 209 206 180 179 194 198 136 90 66 66 52 34 34 27 21 13 353 334 301 255 218 209
286 11 4 356 354 351 333 306 293 281 242 226 223 230 238 123 83 40 34 52 51 51 86 130 131 135 129 117 108 84 77 71 56 119 134 127 122 114 85 50 10 321 265 201 180 182 176 154 166 176 131 161 223 235 286 221 192 197 207 201 204 210 196 195 197 193 196 191 171 168 192 204 161 113 72 73 62 43 38 31 30 25 9 357 339 287 221 208
281 311 350 350 348 349 344 328 276 252 214 229 234 233 214 83 65 26 42 33 16 73 105 156 161 137 116 96 102 79 6 65 76 83 94 92 77 63 45 27 14 350 296 230 175 184 186 129 103 89 53 341 236 307 309 262 195 187 204 209 212 227 223 213 207 196 193 186 175 176 176 130 131 117 87 72 64 51 40 31 30 27 20 18 17 8 335 222
296 287 342 352 351 348 346 338 262 219 226 251 247 84 56 55 20 356 13 349 334 3 137 173 169 143 130 115 113 101 45 84 120 95 78 78 70 46 22 21 12 356 333 282 189 186 182 116 105 120 115 44 349 333 272 265 221 177 196 209 195 277 263 248 197 189 202 196 178 182 150 107 134 130 82 57 52 44 34 29 27 24 23 24 23 14 1 345
314 278 345 6 5 354 351 4 301 237 241 267 63 78 49 50 16 347 340 321 319 311 260 175 71 9 136 128 111 113 123 120 121 124 95 89 65 25 6 24 11 0 357 323 272 206 221 126 120 139 129 102 29 273 178 268 279 213 196 190 145 44 272 263 217 184 199 199 175 185 171 140 168 169 57 30 28 28 23 25 25 23 23 21 19 15 5 354
306 251 343 16 6 351 352 7 300 255 243 80 93 88 47 50 27 1 343 318 296 273 272 131 54 324 135 132 110 93 170 177 138 115 99 80 67 16 357 10 6 5 1 315 280 329 302 132 126 138 135 126 150 217 176 165 261 300 272 168 169 216 213 218 230 193 194 203 186 184 178 145 144 127 37 20 18 16 14 21 23 21 20 17 15 13 9 3
281 249 145 17 356 346 350 332 278 257 224 93 102 96 62 59 39 21 11 333 297 282 302 61 63 35 73 107 114 73 19 122 125 122 82 33 63 30 8 358 338 353 354 321 308 335 289 213 135 135 152 158 168 232 186 158 175 235 244 195 207 242 215 206 223 210 203 209 193 181 179 140 75 49 30 27 25 16 14 22 23 20 19 16 15 12 10 9
285 264 85 11 349 342 334 310 280 268 85 74 75 81 62 56 49 34 23 10 348 335 16 70 66 87 79 64 93 74 40 72 92 92 73 46 81 70 28 2 334 336 333 308 318 344 261 239 154 134 160 184 160 50 31 33 103 205 210 196 191 220 247 228 220 225 241 225 199 191 187 133 83 52 33 42 41 27 24 26 26 22 19 17 18 15 14 14
283 258 58 5 344 318 298 309 50 57 86 84 66 69 52 16 25 38 30 28 36 31 44 71 74 92 103 79 77 79 67 77 75 78 86 51 40 70 28 357 334 327 319 288 353 15 295 246 191 153 159 156 100 61 35 16 6 356 237 197 202 221 224 214 208 210 245 264 238 207 182 117 87 56 51 57 52 45 36 31 33 28 21 20 20 17 19 18
302 348 14 355 338 304 293 59 72 41 72 84 62 55 49 4 7 29 27 27 44 47 47 64 67 75 95 85 81 98 93 76 55 63 87 66 42 39 10 348 331 321 322 312 59 15 326 270 179 131 112 101 102 83 33 15 2 16 40 25 322 270 245 231 220 204 210 235 279 243 173 111 100 87 76 75 67 61 50 41 41 35 26 23 20 18 20 19
25 32 7 355 331 294 295 86 87 65 75 88 82 65 56 39 32 34 32 28 33 42 49 55 50 53 72 80 102 115 94 68 67 79 94 89 60 32 4 351 343 332 328 335 51 3 313 261 129 113 103 105 125 135 47 333 271 143 60 31 353 341 322 293 312 288 218 200 228 238 185 118 126 171 95 90 77 70 63 52 48 43 32 25 23 21 20 19
46 37 24 17 346 289 275 83 84 88 90 98 99 83 69 51 38 37 43 39 32 42 60 56 41 48 67 71 94 102 68 57 107 97 88 98 69 30 14 3 359 3 6 2 352 342 328 286 176 156 154 155 167 177 178 189 202 108 68 38 20 17 344 295 306 277 236 197 283 247 189 114 143 170 128 100 83 70 64 60 53 49 40 29 26 24 23 22
51 71 52 38 30 23 51 52 63 98 101 97 89 82 83 71 46 40 50 50 41 41 61 62 46 62 85 87 90 83 37 43 116 131 112 104 97 52 26 13 10 19 24 5 330 312 326 6 325 224 192 184 184 178 162 152 139 106 67 47 33 19 356 317 244 219 217 135 340 279 135 117 138 150 129 106 91 74 64 62 58 54 50 42 34 27 24 25
280 65 65 62 59 65 69 42 38 82 93 93 80 60 68 87 73 45 41 51 51 47 61 68 48 69 93 96 95 84 64 65 93 131 123 106 106 69 20 16 29 26 16 3 339 313 291 47 9 354 13 66 95 76 44 42 135 120 72 52 36 18 0 327 250 217 214 164 105 60 113 135 138 137 129 108 87 75 63 56 55 51 50 50 44 37 34 31
13 38 25 50 71 76 83 58 37 54 52 37 62 43 54 86 94 62 40 47 55 48 58 60 45 73 95 96 95 84 78 82 87 99 100 87 95 91 26 18 35 19 357 358 351 320 202 111 37 33 48 56 66 71 56 43 80 86 66 50 35 20 3 345 358 53 350 245 146 91 124 146 136 128 125 101 78 72 60 50 48 45 45 47 46 44 42 36
40 69 24 329 331 45 65 50 37 65 77 72 77 64 63 75 81 69 63 69 64 35 53 72 62 67 79 85 100 97 94 95 89 85 88 84 92 129 99 49 39 15 356 29 24 331 253 103 68 73 84 74 64 65 59 52 69 72 44 46 36 17 8 21 51 49 360 352 117 110 122 139 134 130 113 85 65 63 60 50 44 42 44 45 43 43 42 37
75 95 71 330 340 62 72 61 51 75 79 74 72 57 58 74 79 68 59 70 70 53 58 86 80 73 80 82 92 98 88 93 104 96 85 91 88 248 129 101 68 36 17 57 57 350 317 84 96 141 116 94 69 64 54 28 33 126 86 74 48 8 27 38 31 27 16 45 102 118 122 121 122 119 103 90 71 63 61 51 44 39 38 41 41 41 41 37
46 62 69 97 89 80 86 92 91 93 88 80 81 69 56 69 81 76 47 38 70 78 77 88 87 80 83 85 84 80 60 54 94 107 106 124 104 23 31 51 47 43 31 61 69 345 300 113 138 203 152 120 82 69 63 357 329 266 237 130 154 178 195 198 195 186 187 145 125 136 146 134 117 108 110 110 86 64 50 39 42 37 31 37 41 39 37 35
33 34 336 23 88 61 59 87 91 110 95 77 79 91 87 80 84 88 66 41 51 80 88 94 95 89 85 82 76 72 64 53 71 87 71 28 38 27 32 29 351 353 51 78 54 322 286 145 165 225 210 143 122 150 227 315 275 245 223 192 185 200 193 162 140 160 221 157 150 179 197 144 118 123 130 123 109 89 47 28 34 35 28 31 37 36 34 31
49 82 304 281 107 41 257 119 133 121 79 66 72 93 102 99 98 95 82 67 59 67 73 82 92 95 88 77 66 57 53 47 50 61 48 27 39 37 41 50 21 359 29 56 27 9 265 164 169 222 233 140 132 209 274 253 241 226 176 139 166 190 167 143 140 133 33 251 188 193 139 95 98 129 134 113 113 104 60 31 26 31 29 28 32 34 31 29
Height
811 809 808 806 805 803 801 800 799 798 797 796 794 793 792 792 791 791 790 789 788 787 786 786 785 785 783 783 782 781 781 782 782 782 779 772 770 773 773 775 776 778 781 783 785 785 786 787 787 788 788 789 788 786 787 787 786 792 798 801 801 801 797 793 794 792 792 795 796 792 791 796 796 793 791 788 789 793 795 795 792 790 788 789 794 799 805 810
811 809 807 806 804 802 800 799 798 797 796 795 794 793 791 791 790 790 789 788 788 787 786 785 785 784 783 783 782 781 781 781 782 778 771 767 769 771 772 774 775 777 779 781 782 782 783 785 785 786 786 789 789 787 789 787 788 796 797 797 798 798 793 787 788 787 785 789 792 790 790 794 794 792 789 793 799 797 801 802 797 797 795 795 798 802 808 810
811 809 807 806 803 801 800 799 798 796 795 794 793 792 791 790 789 789 788 787 787 786 785 785 784 784 783 782 782 781 781 781 779 771 765 764 766 768 770 772 774 776 778 780 780 780 781 782 784 784 786 788 788 790 792 790 789 793 795 798 795 790 788 783 783 784 783 783 787 790 790 791 791 789 789 794 801 800 803 803 799 804 803 800 800 803 808 810
811 809 807 806 803 801 799 798 797 796 794 793 792 791 790 789 788 788 787 786 785 785 785 784 783 783 783 782 782 781 781 780 772 763 762 763 764 766 769 771 773 776 778 780 781 781 781 782 783 783 786 788 787 789 793 791 790 791 792 794 789 786 788 784 780 781 780 781 785 789 791 793 790 789 791 793 802 804 800 796 795 802 803 802 802 804 808 810
810 809 807 805 803 801 799 798 796 795 793 792 791 790 788 788 787 786 785 785 784 784 783 783 783 782 782 782 782 781 782 778 766 760 763 763 763 765 767 770 773 775 778 780 780 781 781 781 782 784 787 787 787 791 792 787 787 793 789 786 783 784 789 783 778 780 780 781 785 789 793 793 790 793 794 794 806 806 795 790 790 794 797 799 802 804 807 809
810 808 807 805 802 800 799 797 795 794 793 791 790 788 787 786 785 785 784 783 783 782 782 782 782 782 782 781 781 782 781 773 762 760 762 761 762 764 767 770 773 776 778 779 779 780 781 781 784 787 787 786 789 790 788 782 783 792 787 781 781 781 787 783 777 780 780 783 789 789 789 789 794 799 795 794 802 798 788 786 788 791 793 797 800 803 806 808
809 807 806 804 801 800 798 796 795 793 791 790 789 787 786 785 784 783 782 782 782 781 781 781 782 782 781 781 781 781 777 768 760 761 761 760 762 763 767 770 773 777 777 777 777 778 779 782 785 785 786 787 788 786 784 782 782 791 789 782 781 780 783 780 776 778 778 783 787 785 787 792 797 799 795 794 796 791 786 785 787 791 794 797 800 802 805 808
807 806 804 802 800 799 797 795 794 792 790 789 787 786 784 783 782 782 781 781 780 780 781 781 781 781 781 782 780 776 771 765 761 761 760 760 762 764 768 772 775 776 776 776 775 776 778 783 784 782 787 787 784 784 784 785 787 791 790 782 779 779 779 775 773 777 778 780 782 784 790 795 794 793 794 794 792 790 788 787 788 792 795 798 801 802 805 808
806 805 803 801 799 798 796 794 793 791 789 787 786 784 782 781 780 780 780 779 779 779 779 780 781 781 782 781 778 773 766 762 762 762 761 762 763 766 769 771 775 775 775 776 775 776 778 782 781 778 784 783 782 784 782 790 792 786 785 781 780 779 775 773 773 775 777 778 781 787 793 795 792 791 794 793 792 790 788 790 791 794 798 799 801 803 805 807
805 803 801 799 798 796 795 793 792 789 788 786 784 782 780 779 778 777 777 778 778 778 778 779 780 781 782 781 777 771 763 762 763 763 763 764 765 768 770 771 774 774 774 775 775 776 776 778 776 775 780 780 782 783 781 788 787 780 781 780 779 778 773 773 775 775 776 778 780 788 797 797 792 794 799 793 790 790 791 794 795 796 799 800 802 803 805 808
803 801 800 798 797 795 793 792 790 788 786 784 782 780 779 777 776 775 775 776 776 777 778 778 779 781 782 780 776 768 762 763 764 764 766 766 767 768 770 772 773 774 773 774 775 775 775 775 773 776 782 780 781 783 780 780 779 779 781 781 778 775 774 775 777 776 776 780 779 783 797 800 796 799 798 791 789 790 793 797 797 798 800 800 802 803 806 808
803 801 799 797 795 794 792 791 789 788 785 783 781 779 777 775 774 773 773 774 775 776 777 778 779 780 781 779 773 765 763 764 765 766 767 767 768 769 770 773 774 774 774 774 775 775 776 775 775 780 782 779 782 786 781 774 776 780 780 785 781 774 778 778 778 777 776 782 776 779 800 804 801 800 791 787 789 789 793 798 798 798 799 800 802 803 806 808
802 800 798 796 794 793 791 790 788 787 785 783 780 777 776 773 772 772 772 773 774 775 776 778 779 780 781 775 766 764 765 765 765 766 768 768 769 770 772 774 775 775 775 775 775 776 778 777 777 778 778 779 782 780 777 773 778 782 779 784 783 779 784 780 779 779 777 781 773 782 809 806 797 795 785 785 788 789 794 797 798 798 798 801 801 804 806 807
801 800 798 796 794 792 790 788 787 785 783 781 779 777 774 772 771 771 771 772 774 775 776 778 779 781 779 770 763 764 765 766 767 766 768 769 769 771 773 774 775 776 777 776 777 779 779 778 777 778 777 778 777 775 778 778 780 783 781 783 782 784 790 781 779 782 782 782 773 789 817 807 795 792 783 785 787 789 795 795 796 798 798 800 801 804 806 806
800 799 797 795 792 790 788 787 785 783 782 780 778 777 774 772 771 771 772 773 774 776 777 778 779 779 775 767 762 764 765 766 767 766 768 768 769 771 772 775 776 777 778 778 779 780 780 780 780 782 781 777 777 782 785 782 780 781 787 792 782 783 795 786 779 781 784 784 775 792 817 805 792 790 783 785 787 788 794 795 795 797 798 799 801 802 804 805
799 797 795 793 790 788 786 785 783 782 781 780 779 777 775 774 772 772 773 774 775 776 778 779 778 778 775 766 763 765 765 765 765 767 768 768 769 770 772 775 775 777 779 779 780 781 781 781 780 780 780 780 784 786 785 785 784 781 787 794 784 782 792 789 783 780 781 786 782 792 812 807 791 788 787 785 786 789 792 795 796 798 799 800 801 801 802 804
797 795 793 791 789 786 785 783 782 781 780 780 779 777 776 776 775 774 775 775 777 777 778 778 777 778 773 764 765 765 762 763 765 767 768 769 769 770 773 774 775 777 777 779 781 781 782 782 782 782 781 783 781 781 790 795 790 783 784 787 781 778 782 788 792 784 780 788 788 790 803 806 794 788 790 787 785 789 792 795 796 797 800 800 800 801 801 803
795 793 791 789 787 785 783 782 781 780 779 779 779 778 777 777 776 776 776 777 777 778 779 777 777 778 772 764 763 762 759 762 765 766 768 769 770 770 772 772 774 776 779 782 782 783 784 783 784 786 786 785 781 783 793 790 780 780 783 784 783 780 779 785 791 786 784 790 789 790 795 797 796 790 789 788 785 789 792 793 795 796 799 800 800 800 800 802
794 791 789 787 785 784 782 781 780 779 779 778 779 779 777 777 776 776 777 777 776 775 774 773 772 772 769 762 759 759 760 762 764 766 767 769 770 770 771 772 774 777 782 785 785 784 785 786 788 789 788 786 784 781 780 775 769 771 775 779 781 780 779 780 783 781 783 790 790 789 788 787 793 792 788 787 786 789 793 792 794 796 798 800 800 799 798 800
791 789 787 785 784 783 781 780 779 778 778 778 779 778 776 775 773 774 775 774 771 766 765 765 764 764 763 759 758 759 761 763 764 764 766 768 768 770 770 772 775 779 782 784 786 782 782 790 791 787 783 780 780 775 771 772 773 772 773 777 778 777 780 779 781 777 775 790 793 783 781 779 782 785 782 783 786 789 793 794 795 796 797 800 800 799 798 799
789 787 785 783 782 781 780 779 777 777 777 777 778 777 773 771 772 773 771 767 763 761 762 761 760 761 760 759 759 759 761 763 762 762 766 767 766 770 773 773 779 783 780 778 782 781 784 790 785 779 775 773 775 773 774 778 779 779 776 778 779 777 779 778 780 776 771 786 789 778 780 780 775 777 777 780 786 788 789 793 795 795 797 799 800 799 798 797
788 786 783 782 780 779 778 777 776 777 776 777 777 774 770 771 774 773 772 768 761 759 761 760 761 761 758 758 759 759 761 763 764 763 764 765 765 770 773 774 778 779 776 776 782 787 791 788 777 771 770 770 774 775 778 781 780 781 777 779 781 775 777 780 778 775 772 780 783 778 781 778 771 772 774 778 781 782 782 785 790 793 796 799 800 799 798 798
787 784 782 781 778 778 777 776 776 776 776 777 775 772 772 774 774 773 773 771 764 759 759 760 761 760 758 758 758 760 761 761 765 766 762 765 766 766 771 774 774 774 776 779 782 789 792 782 769 768 771 774 778 779 780 783 782 781 778 780 781 774 778 785 782 777 775 777 779 780 782 775 770 772 773 774 774 775 777 779 785 789 792 796 796 796 796 797
786 783 781 779 778 777 775 775 776 776 776 776 774 773 774 774 774 774 772 768 764 760 757 758 758 758 758 757 756 759 759 755 759 763 760 763 765 765 768 770 771 774 776 777 777 781 781 771 764 770 775 776 780 782 782 785 784 780 778 778 777 775 777 780 781 779 776 776 775 780 787 778 772 777 777 772 771 774 775 778 784 787 788 791 792 792 794 794
784 782 781 779 777 776 775 776 776 775 776 774 774 775 774 774 773 774 773 768 765 761 757 758 758 757 755 755 757 756 755 756 755 757 758 759 761 765 766 764 768 775 775 775 776 777 774 767 767 775 778 776 780 783 782 783 783 780 778 774 773 777 778 779 781 782 783 785 778 779 795 792 777 777 776 772 775 777 776 779 783 785 786 790 791 790 791 793
783 782 780 778 777 776 775 775 774 776 775 772 774 774 774 775 772 773 774 768 765 761 759 759 759 758 755 755 756 753 759 762 756 754 756 758 756 760 767 765 766 770 769 772 775 773 769 768 770 776 778 777 780 782 779 778 782 783 775 770 775 778 780 781 782 785 788 788 779 777 794 797 783 778 774 772 779 780 779 781 782 783 784 786 789 788 789 792
783 781 779 778 776 776 775 773 775 775 773 772 774 774 774 773 771 773 775 773 771 763 759 760 758 757 756 754 753 757 766 763 758 758 757 759 757 757 766 769 768 768 763 771 781 774 768 772 774 774 776 779 782 782 776 775 783 781 770 770 777 779 781 782 782 786 782 779 780 775 783 792 787 784 777 773 782 785 784 786 782 781 782 782 784 785 787 788
782 780 779 777 776 776 775 774 775 772 772 774 773 774 774 771 772 773 776 784 778 761 758 759 757 755 754 753 753 757 761 756 761 765 756 758 760 759 767 766 766 769 764 772 783 773 767 775 776 774 778 780 778 775 770 775 782 775 768 773 775 777 780 778 780 784 779 786 793 779 779 794 792 787 782 777 785 790 788 786 783 780 780 780 781 781 782 783
781 779 778 777 776 776 775 775 774 772 773 774 772 774 772 770 773 771 775 786 775 758 759 759 756 757 754 755 756 757 757 756 763 764 757 759 759 759 765 762 760 765 766 769 772 768 767 768 767 771 776 775 771 767 765 775 779 769 769 775 774 776 779 778 782 782 783 800 802 781 780 793 792 787 785 785 791 793 788 782 778 777 776 777 778 777 778 779
781 779 778 777 776 776 775 774 773 773 773 772 772 772 770 772 774 777 785 785 770 761 760 758 758 759 757 760 762 760 761 762 761 760 760 761 760 760 762 760 759 763 768 768 764 764 764 762 762 767 770 766 763 763 765 771 772 768 773 778 779 779 779 781 781 779 795 810 797 777 776 784 795 797 790 791 795 791 787 784 780 776 774 775 775 774 776 776
780 779 778 776 776 776 774 772 772 773 771 771 772 769 771 772 770 781 790 778 767 764 761 760 760 758 757 761 765 764 764 766 763 762 764 763 763 764 765 765 765 767 773 773 768 767 768 769 767 766 766 764 765 768 768 767 767 771 777 779 786 789 788 792 789 791 811 813 787 772 772 778 797 805 792 789 790 786 787 788 786 783 778 775 773 772 772 773
780 779 778 776 776 775 773 772 770 771 770 770 770 768 771 775 774 781 781 770 771 772 765 765 763 759 760 762 766 766 766 769 766 764 765 765 768 771 772 772 770 777 783 777 773 772 771 770 768 769 768 765 772 775 774 772 770 775 777 780 793 803 807 812 808 807 812 800 776 769 775 783 794 799 791 789 789 786 787 786 786 786 782 779 774 770 770 770
780 779 778 776 775 774 773 771 769 769 769 769 770 766 769 781 787 783 772 769 776 773 766 767 762 759 762 766 771 769 768 774 771 767 768 767 771 775 775 773 771 778 779 770 772 777 777 775 770 772 772 767 770 774 777 779 775 776 777 781 793 803 816 823 813 809 807 792 775 770 778 790 796 796 790 788 790 786 784 784 783 784 782 780 774 769 768 768
779 778 777 776 774 773 771 769 768 768 768 768 768 767 773 786 788 779 773 773 773 769 767 768 763 762 764 769 774 770 772 779 773 769 770 769 773 778 777 777 775 775 769 764 768 773 783 788 777 773 774 770 768 769 771 771 771 773 767 770 782 785 797 809 803 802 802 789 781 781 786 789 794 799 790 784 786 784 783 783 781 782 780 776 772 767 766 767
778 777 777 775 773 772 769 768 768 766 767 767 764 768 780 788 783 777 778 776 772 770 769 766 763 767 772 773 774 771 773 780 776 771 774 776 782 786 784 783 782 777 773 771 768 765 776 785 776 771 772 769 770 769 764 766 771 768 759 768 778 769 771 782 780 778 781 783 787 787 786 782 784 790 784 782 786 784 786 785 782 785 781 776 776 772 769 768
777 776 776 775 773 772 769 767 766 765 767 764 765 776 784 787 784 781 781 778 775 774 772 769 766 769 776 777 777 774 772 777 778 778 782 784 787 792 791 788 786 783 781 777 770 769 778 783 776 772 772 769 772 770 764 769 773 767 767 774 770 757 761 776 780 771 771 786 789 779 784 790 790 791 785 784 789 788 789 789 786 787 784 781 781 779 775 773
777 776 775 774 773 771 769 766 765 766 764 761 771 785 785 783 785 783 780 778 777 776 773 775 777 776 777 779 781 779 774 777 778 779 787 789 790 797 794 790 787 784 785 782 774 770 776 784 778 773 776 773 769 769 766 766 766 768 774 768 760 764 768 774 786 786 785 795 787 772 784 797 796 797 794 790 794 796 793 792 791 789 787 786 784 782 780 777
777 775 774 774 773 771 768 767 766 763 760 765 781 789 782 781 783 780 780 779 777 776 772 775 782 780 776 780 786 783 776 780 781 781 789 791 794 799 797 794 789 783 783 783 779 771 771 784 783 773 776 774 767 770 772 766 762 767 768 757 762 782 783 779 787 792 794 797 786 776 782 792 798 803 803 801 802 803 798 795 795 794 792 791 787 785 783 780
775 773 773 774 773 771 769 767 764 760 762 773 784 786 782 783 782 779 779 779 777 777 774 776 780 780 779 781 786 785 779 780 782 784 791 795 797 798 797 797 792 786 784 780 779 774 769 781 787 775 771 772 769 772 777 774 766 764 765 761 763 772 775 777 776 775 783 788 786 787 789 798 809 809 807 808 807 806 804 800 800 799 797 795 792 789 786 782
774 772 774 774 773 772 769 765 763 763 770 778 782 783 783 782 781 779 778 778 778 776 776 780 780 782 788 787 785 786 784 783 784 787 793 798 800 799 797 799 796 790 786 779 778 778 771 774 785 780 771 773 780 782 784 782 774 769 769 769 770 768 766 772 768 762 770 776 779 790 797 806 814 810 806 807 807 807 806 804 804 803 800 798 795 793 789 785
773 774 775 774 773 772 768 767 770 771 776 781 783 784 786 784 782 781 778 776 778 776 775 779 781 784 790 791 789 790 790 790 789 790 796 800 801 802 799 799 798 793 787 781 779 781 777 772 775 779 778 782 792 790 787 787 781 775 772 771 774 771 770 782 783 769 765 770 769 774 796 816 816 808 806 805 806 807 805 805 806 805 803 801 798 795 792 789
773 777 777 774 774 770 767 773 778 776 779 785 787 786 788 787 784 782 780 778 778 777 776 778 782 785 788 791 793 791 792 797 797 795 799 803 804 806 802 798 796 792 788 786 783 784 783 775 775 783 785 788 793 790 787 788 783 779 777 776 775 772 773 783 787 776 768 772 768 765 793 822 815 804 805 803 804 806 804 805 806 806 806 803 801 798 794 792
777 780 778 775 775 770 770 779 783 782 786 789 788 788 788 787 786 784 783 781 781 780 781 782 784 785 787 790 791 791 794 801 805 802 803 806 807 808 804 798 794 791 788 788 786 783 783 781 785 794 793 790 790 787 786 785 782 782 782 781 779 778 779 779 780 777 770 774 776 772 796 823 817 805 803 799 801 804 803 805 806 808 808 805 804 801 798 796
780 780 776 775 775 770 773 783 786 788 791 789 789 791 790 790 790 789 788 787 786 784 786 789 787 786 789 788 788 791 794 800 807 806 804 807 809 807 804 799 796 794 793 795 792 788 788 787 789 797 801 801 799 795 793 788 784 786 788 787 785 783 783 781 779 778 776 781 782 776 795 822 818 805 802 799 802 804 803 805 807 808 810 808 806 804 801 800
780 781 779 777 775 773 777 783 783 788 791 791 792 793 792 794 794 791 791 792 790 788 790 793 790 787 789 789 790 793 791 793 803 806 804 806 808 807 805 802 799 797 798 799 795 790 792 793 793 796 799 803 805 804 800 792 787 790 791 791 790 786 786 785 781 781 786 790 787 784 802 824 817 805 804 803 803 807 806 806 807 808 810 810 809 808 806 803
781 784 784 781 778 778 783 783 781 787 790 791 795 795 794 797 796 792 792 794 793 791 792 794 792 790 791 791 794 797 794 792 798 802 803 805 807 807 806 803 801 801 801 800 796 792 794 797 799 800 798 799 805 806 799 791 790 796 797 796 794 791 789 786 782 786 788 788 794 799 806 818 818 809 807 806 806 810 810 809 809 809 809 810 810 810 809 807
783 790 791 790 788 785 786 787 786 789 790 792 798 799 796 797 797 795 795 796 796 795 795 796 794 795 797 797 798 802 801 799 800 804 806 806 806 807 805 802 802 803 802 800 796 795 798 801 802 803 803 801 803 804 799 795 797 801 802 800 798 796 793 790 790 795 792 790 803 809 803 807 816 812 808 810 810 811 812 812 812 811 809 810 810 809 809 809
788 794 794 794 796 793 792 794 792 791 792 794 798 800 798 798 800 800 798 796 796 795 797 801 800 798 800 799 800 805 807 807 809 811 809 809 808 806 805 804 803 802 801 799 799 798 800 806 805 804 806 805 803 803 801 800 802 804 803 803 803 800 799 799 798 799 797 798 806 811 805 805 810 809 809 812 811 812 813 813 812 811 810 810 809 809 809 809
789 793 794 794 797 797 797 797 794 793 796 798 800 802 801 801 803 803 799 799 801 798 798 805 806 802 800 800 801 807 809 809 814 816 812 812 811 808 807 808 804 801 800 801 803 802 803 810 809 805 807 809 806 806 805 804 805 805 803 804 804 803 802 803 802 798 800 803 803 805 809 808 806 808 811 812 810 810 812 812 813 813 812 811 811 810 811 811
792 795 795 794 796 798 797 796 794 796 799 800 803 805 803 803 805 804 801 802 806 804 801 805 807 803 802 802 804 810 810 807 811 816 813 813 812 809 810 810 807 804 803 804 806 804 806 814 813 806 809 812 810 808 807 807 807 807 805 804 805 806 804 804 803 801 801 804 802 804 811 812 808 808 810 811 810 810 811 814 815 815 814 812 813 813 813 813
797 799 797 795 799 802 800 798 796 797 800 802 805 807 806 806 805 805 806 804 805 806 804 805 807 805 805 807 809 812 811 808 809 811 810 810 810 809 809 810 809 807 807 807 808 805 806 813 814 810 810 813 812 811 809 807 807 807 807 806 806 806 805 803 803 803 802 804 806 807 808 808 808 809 810 812 812 812 814 816 817 817 817 815 815 816 815 815
800 800 798 796 801 803 801 799 797 798 803 806 807 807 807 807 805 805 809 809 805 804 804 804 804 805 808 813 814 813 810 809 809 808 808 807 807 807 807 808 808 809 809 809 809 807 807 810 811 810 810 811 813 813 810 809 810 809 805 805 806 806 805 805 807 807 806 805 806 805 805 807 810 810 811 813 813 813 816 818 819 820 819 817 817 817 817 817